sat.trackr.live / text

‹ back to catalog

STARLINK-36420

NORAD 67347 · 2026-003P

PAYLOAD ACTIVE UNKNOWN

§ Identity

Operator
Country
US
Launch date
2026-01-09
Launch site
AFETR
Launch vehicle
Mass (kg)
RCS (m²)

Purposes: comms

External: N2YO · Heavens-Above · Gunter

§ Orbital elements

Epoch: 2026-09-18T06:14:03.606144Z

Period
94.26 min
Inclination
43.0020°
Eccentricity
0.0001366
Mean motion
15.27616427 rev/d
Perigee alt
482.0 km
Apogee alt
483.9 km
Semi-major
6,861.1 km
B*
6.5664e-4
RAAN
219.6482°
Arg perigee
280.6597°
Mean anomaly
79.4101°
Rev number
3,827

§ Raw data

STARLINK-364201 67347U 26003P   26261.25976396  .00017871  00000+0  65664-3 0  99952 67347  43.0020 219.6482 0001366 280.6597  79.4101 15.27616427 38276

JSON: /api/v1/satellites/67347 · /tle

For live sub-satellite position, see the globe view (requires WebGL).

§ Visibility from observer

Set your observer location to see the next 7 days of passes ≥ 10°. The values pass through the URL so the page stays shareable.

No JS? Fill the form by hand. The geolocation button needs JavaScript.